STARLINK-1356 (45564 NORAD) Tracking and Keplerian Element Data

This shows tracking and keplerian element data for the satellite.

Feedback or suggestion? Click here.




ElementValue
Catalog45564
NameSTARLINK-1356
Epoch Orbit180
Epoch Day145.83334491
Epoch Year2020
RAAN241.3268
Inclination52.9976
Eccentricity0.0001104
Argument of Perigee75.2223
Mean Anonmoly58.1169
Mean Motion15.6276833
Decay Rate1.815E-05
L11 45564U 20025AK 20145.83334491 .00001815 00000-0 25634-4 0 9999
L22 45564 52.9976 241.3268 0001104 75.2223 58.1169 15.62768330 1807

Live tracking and technical data element details for STARLINK-1356 (NORAD 45564). STARLINK-1356 can be tracked NOW for your location showing map with azimuth and elevation plus other details from your city location.

Track the satellite on the map from your city or location and see movement details for azimuth, elevation, latitude, longitude, range, height, and movement on the map or in text.







IsCatalogInMostPopularTable: catalog: 45564, numindb: 6
Update: records affected: 1



GetName: 45564 STARLINK-1356

Hit Count: updated at: Tue, 26 May 2020 03:14:58 GMT